[[{"header":{"parameterUnit":"m.s-1","parameterCategory":1,"la1":30.2991,"la2":30.254,"lo1":-89.0895,"lo2":-89.0444,"dy":0.0017,"dx":0.0017,"nx":28,"ny":28,"refTime":"2023-03-20T15:00:00:Z","depth":0,"parameterNumber":2,"parameterNumberName":"U-component_of_WINDS"},"data":[0,0,0,0,0,0,0,0,0,0,0,0,0,0,0,0,0,0,0,0,0,0,0,0,0,0,0,0,0,0,0,0,0,0,0,0,0,0,0,0,0,0,0,0,0,0,0,0,0,0,0,0,0,0,0,0,0,0,-3.8416,-3.8417,0,-3.8516,-3.8517,-3.8518,-3.8518,-3.8516,-3.8515,-3.8514,-3.8612,-3.8616,-3.862,0,0,0,0,0,0,0,0,0,0,0,0,0,-3.8223,-3.8226,-3.8416,-3.8417,-3.8418,-3.8516,-3.8517,-3.8518,-3.8518,-3.8516,-3.8515,-3.8513,-3.8611,-3.8616,-3.862,0,0,0,0,0,0,0,0,0,0,0,0,0,-3.8313,-3.8227,-3.8416,-3.843,-3.8432,-3.8515,-3.8517,-3.8519,-3.8518,-3.8516,-3.8514,-3.8512,-3.861,-3.8615,-3.8621,-3.8695,0,0,-3.8638,-3.8641,0,0,0,0,0,0,0,0,-3.8308,-3.832,-3.8427,-3.8429,-3.8432,-3.8502,-3.8485,-3.8578,-3.8519,-3.8485,-3.8514,-3.8511,-3.8577,-3.8585,-3.8608,-3.87,-3.8704,-3.8639,-3.8642,-3.8645,-3.8647,0,0,0,0,0,0,0,-3.8302,-3.8316,-3.8455,-3.8428,-3.8431,-3.8431,-3.8441,-3.8503,-3.8541,-3.8488,-3.8488,-3.85,-3.8578,-3.8603,-3.8611,-3.8706,-3.8639,-3.8644,-3.8647,-3.865,-3.8865,-3.8867,0,0,0,0,0,0,-3.8293,-3.831,-3.8452,-3.8458,-3.8364,-3.8436,-3.8448,-3.8482,-3.854,-3.8547,-3.8502,-3.85,-3.8594,-3.8604,-3.8614,-3.8705,-3.8645,-3.865,-3.8654,-3.8862,-3.8865,-3.8868,0,0,0,0,0,0,-3.8289,-3.8305,-3.8448,-3.8385,-3.8403,-3.8441,-3.8479,-3.8485,-3.8509,-3.8551,-3.8557,-3.852,-3.8593,-3.8606,-3.8676,-3.8708,-3.8653,-3.8658,-3.886,-3.8863,-3.8866,-3.8888,0,0,0,0,0,0,-3.8283,-3.8304,-3.8333,-3.8385,-3.8406,-3.8509,-3.8481,-3.8488,-3.852,-3.8518,-3.857,-3.8576,-3.8592,-3.8667,-3.8681,-3.8715,-3.8663,-3.8857,-3.8861,-3.8865,-3.8884,-3.8891,-3.8898,0,0,0,0,0,-3.8276,-3.8334,-3.8334,-3.8351,-3.8443,-3.851,-3.8522,-3.8541,-3.8522,-3.8551,-3.8578,-3.8574,-3.8703,-3.8674,-3.869,-3.8726,-3.8855,-3.886,-3.8865,-3.8881,-3.889,-3.8897,0,0,0,0,0,0,-3.8282,-3.8341,-3.8342,-3.8418,-3.846,-3.851,-3.8547,-3.8549,-3.8595,-3.8592,-3.8612,-3.8623,-3.8693,-3.8717,-3.8684,-3.8802,-3.8777,-3.8785,-3.8783,-3.8792,-3.8799,-3.879,-3.8667,0,0,0,0,0,-3.8293,-3.8343,-3.8392,-3.8455,-3.8475,-3.8508,-3.8538,-3.8549,-3.8592,-3.8609,-3.8641,-3.8682,-3.8732,-3.8764,-3.8812,-3.8889,-3.89,-3.8922,-3.8929,-3.8934,-3.894,-3.8983,-3.8993,-3.8884,-3.8884,-3.8884,0,0,-3.8314,-3.8353,-3.8383,-3.8457,-3.849,-3.8541,-3.8522,-3.8577,-3.8615,-3.8617,-3.8684,-3.871,-3.8757,-3.8831,-3.8865,-3.8853,-3.8973,-3.894,-3.8944,-3.8948,-3.8989,-3.8999,-3.9008,-3.8888,-3.8887,-3.8886,0,0,-3.8379,-3.8414,-3.847,-3.8505,-3.8556,-3.8578,-3.8592,-3.8643,-3.866,-3.8729,-3.8732,-3.8777,-3.8863,-3.8896,-3.8924,-3.9006,-3.9004,-3.9021,-3.9055,-3.9096,-3.9105,-3.9112,-3.914,-3.915,-3.9028,-3.9028,-3.9028,0,-3.8399,-3.8477,-3.8499,-3.8554,-3.8586,-3.8593,-3.865,-3.8682,-3.8746,-3.8768,-3.8754,-3.8863,-3.8895,-3.8977,-3.8997,-3.902,-3.9036,-3.9014,-3.9102,-3.911,-3.9117,-3.9144,-3.9155,-3.903,-3.9029,-3.9029,-3.9029,0,-3.8498,-3.8553,-3.8592,-3.8655,-3.8693,-3.8748,-3.8778,-3.8813,-3.8822,-3.8845,-3.8916,-3.8955,-3.9012,-3.9033,-3.9041,-3.9116,-3.9107,-3.9098,-3.9072,-3.9129,-3.9155,-3.9165,-3.9032,-3.9031,-3.9031,-3.9031,0,0,-3.8566,-3.8644,-3.8657,-3.8687,-3.8745,-3.8787,-3.8844,-3.8901,-3.893,-3.8975,-3.9022,-3.9096,-3.9089,-3.9121,-3.9134,-3.917,-3.9232,-3.9157,-3.9158,-3.9168,-3.9316,-3.9321,-3.9333,-3.9232,-3.9234,-3.9236,-3.9312,0,-3.8636,-3.8738,-3.876,-3.8847,-3.8898,-3.8906,-3.8956,-3.8997,-3.9021,-3.9067,-3.9093,-3.9145,-3.9131,-3.9151,-3.9188,-3.9216,-3.9261,-3.9211,-3.9275,-3.9277,-3.926,-3.9346,-3.9351,-3.9421,-3.9322,-3.9324,-3.9325,0,-3.8731,-3.8779,-3.8872,-3.8925,-3.8947,-3.8991,-3.9046,-3.909,-3.9138,-3.9153,-3.919,-3.92,-3.9259,-3.9233,-3.9314,-3.9279,-3.9307,-3.9326,-3.9329,-3.9333,-3.9302,-3.9351,-3.9443,-3.9453,-3.9341,-3.934,-3.9339,0,-3.8769,-3.8858,-3.8925,-3.895,-3.9015,-3.9045,-3.9074,-3.9119,-3.9153,-3.9201,-3.9222,-3.9276,-3.9305,-3.9346,-3.937,-3.9349,-3.945,-3.9425,-3.9462,-3.9462,-3.948,-3.9478,-3.9576,-3.9502,-3.9502,-3.9502,-3.9502,0,-3.8843,-3.8899,-3.8944,-3.8984,-3.9048,-3.9074,-3.9135,-3.9163,-3.9204,-3.925,-3.9262,-3.9305,-3.9335,-3.9382,-3.9401,-3.9465,-3.9478,-3.9491,-3.9495,-3.9489,-3.9487,-3.9505,-3.95,-3.9505,-3.9504,-3.9504,-3.9503,0,-3.8895,-3.8928,-3.9001,-3.9058,-3.9073,-3.9117,-3.9165,-3.9205,-3.923,-3.9289,-3.9304,-3.9344,-3.94,-3.9429,-3.9499,-3.9512,-3.9584,-3.9586,-3.9568,-3.9569,-3.9604,-3.9599,-3.9715,-3.9731,-3.9648,-3.9649,-3.9649,0,-3.8939,-3.8983,-3.9045,-3.9077,-3.9107,-3.9159,-3.9193,-3.9222,-3.9257,-3.9316,-3.9349,-3.9406,-3.9453,-3.9543,-3.9577,-3.9631,-3.9633,-3.9671,-3.9641,-3.9634,-3.9632,-3.9628,-3.9632,-3.9674,-3.9675,-3.9676,-3.9676,0,-3.9014,-3.9028,-3.9078,-3.9135,-3.9177,-3.9222,-3.9267,-3.9293,-3.9328,-3.9368,-3.9427,-3.9463,-3.9536,-3.9593,-3.965,-3.9678,-3.9683,-3.9686,-3.9697,-3.969,-3.9677,-3.9683,-3.9579,-3.9682,-3.9682,-3.9681,-3.9681,-3.9681,-3.9062,-3.9101,-3.9151,-3.9207,-3.9245,-3.9287,-3.9328,-3.936,-3.9409,-3.9471,-3.9486,-3.9547,-3.9595,-3.9672,-3.9703,-3.9751,-3.9743,-3.976,-3.9763,-3.9766,-3.9767,-3.9672,-3.9762,-3.9762,-3.9762,-3.9762,-3.9762,0,-3.9135,-3.9169,-3.922,-3.9284,-3.9328,-3.9332,-3.9382,-3.9419,-3.9473,-3.9518,-3.9565,-3.9633,-3.9689,-3.9729,-3.9786,-3.9817,-3.9821,-3.9831,-3.9827,-3.9834,-3.9772,-3.9756,-3.9827,-3.9827,-3.9827,-3.9827,-3.9827,-3.9827,-3.9178,-3.9245,-3.9266,-3.9352,-3.9385,-3.9446,-3.9475,-3.9514,-3.955,-3.9626,-3.9673,-3.97,-3.9743,-3.9803,-3.9854,-3.9865,-3.9884,-3.9894,-3.9904,-3.9845,-3.9838,-3.9831,-3.9816,-3.9899,-3.9899,-3.9962,-3.9962,-3.9963]},{"header":{"parameterUnit":"m.s-1","parameterCategory":1,"la1":30.2991,"la2":30.254,"lo1":-89.0895,"lo2":-89.0444,"dy":0.0017,"dx":0.0017,"nx":28,"ny":28,"refTime":"2023-03-20T15:00:00:Z","depth":0,"parameterNumber":3,"parameterNumberName":"V-component_of_WINDS"},"data":[0,0,0,0,0,0,0,0,0,0,0,0,0,0,0,0,0,0,0,0,0,0,0,0,0,0,0,0,0,0,0,0,0,0,0,0,0,0,0,0,0,0,0,0,0,0,0,0,0,0,0,0,0,0,0,0,0,0,2.0573,2.0572,0,2.05,2.0499,2.0498,2.0462,2.0462,2.0462,2.0462,2.0386,2.0384,2.0382,0,0,0,0,0,0,0,0,0,0,0,0,0,2.0682,2.068,2.0573,2.0572,2.0571,2.05,2.0499,2.0498,2.0462,2.0462,2.0462,2.0462,2.0386,2.0384,2.0382,0,0,0,0,0,0,0,0,0,0,0,0,0,2.0624,2.0679,2.0573,2.0544,2.0541,2.05,2.0499,2.0498,2.0462,2.0462,2.0462,2.0462,2.0387,2.0384,2.0381,2.0363,0,0,2.0372,2.0371,0,0,0,0,0,0,0,0,2.0627,2.062,2.0549,2.0546,2.0542,2.049,2.051,2.0453,2.0462,2.0492,2.0462,2.0462,2.042,2.0415,2.0401,2.036,2.0356,2.0372,2.037,2.0369,2.0368,0,0,0,0,0,0,0,2.0632,2.0623,2.0544,2.0549,2.0544,2.0536,2.0527,2.0499,2.0457,2.0489,2.0486,2.0478,2.0418,2.0404,2.0399,2.0355,2.0372,2.0369,2.0367,2.0366,2.0299,2.0299,0,0,0,0,0,0,2.064,2.0627,2.0546,2.0542,2.0586,2.0534,2.0524,2.0507,2.0457,2.045,2.0478,2.0477,2.0409,2.0402,2.0396,2.0373,2.0369,2.0366,2.0364,2.0299,2.0299,2.0299,0,0,0,0,0,0,2.0643,2.0633,2.0549,2.0584,2.0572,2.0532,2.0512,2.0505,2.0491,2.0449,2.0442,2.0471,2.0409,2.04,2.0373,2.037,2.0365,2.0362,2.0299,2.0299,2.0299,2.0327,0,0,0,0,0,0,2.0646,2.0634,2.0626,2.0584,2.0571,2.0526,2.0512,2.0504,2.0486,2.0483,2.044,2.0433,2.0408,2.0377,2.037,2.0366,2.036,2.0299,2.0299,2.0299,2.0326,2.0328,2.033,0,0,0,0,0,2.065,2.0636,2.0626,2.0617,2.056,2.0526,2.0519,2.0491,2.0486,2.0478,2.0452,2.0435,2.0372,2.0375,2.0366,2.0361,2.0299,2.0299,2.0299,2.0325,2.0328,2.033,0,0,0,0,0,0,2.0678,2.063,2.0618,2.059,2.0563,2.052,2.0509,2.0494,2.0466,2.0465,2.0431,2.0422,2.0398,2.0377,2.038,2.0343,2.0334,2.0332,2.0357,2.0359,2.0361,2.0366,2.0357,0,0,0,0,0,2.0681,2.0658,2.0617,2.0596,2.0584,2.0549,2.0533,2.0515,2.0485,2.0473,2.0444,2.0416,2.039,2.0373,2.0347,2.0324,2.0315,2.0317,2.0318,2.032,2.0318,2.0307,2.0308,2.0299,2.0299,2.0299,0,0,2.0687,2.0658,2.0645,2.0602,2.0578,2.0556,2.0539,2.0515,2.0499,2.0469,2.0441,2.042,2.0386,2.0361,2.0349,2.0343,2.0319,2.032,2.0322,2.0319,2.0307,2.0308,2.0309,2.0299,2.0299,2.0299,0,0,2.0686,2.0661,2.0642,2.062,2.0586,2.0564,2.0559,2.052,2.0505,2.0477,2.0455,2.0436,2.0391,2.0369,2.0352,2.0348,2.0331,2.034,2.0349,2.0338,2.0338,2.0339,2.0338,2.0339,2.0339,2.0339,2.0339,0,2.0697,2.0662,2.0634,2.0613,2.0595,2.0569,2.0551,2.0531,2.0489,2.0478,2.0473,2.0419,2.0394,2.0365,2.0365,2.0351,2.0346,2.0344,2.0341,2.0341,2.0341,2.034,2.034,2.034,2.034,2.034,2.034,0,2.0678,2.0655,2.0644,2.0606,2.0588,2.0568,2.0538,2.0523,2.0507,2.0486,2.046,2.043,2.0399,2.0391,2.0374,2.036,2.0358,2.0347,2.0337,2.0343,2.0342,2.0342,2.0342,2.0342,2.0341,2.0341,0,0,2.0689,2.064,2.0636,2.062,2.0582,2.0564,2.0544,2.0515,2.0503,2.0477,2.046,2.0425,2.0417,2.0397,2.0379,2.0369,2.037,2.036,2.0359,2.0363,2.0355,2.0363,2.0363,2.036,2.036,2.036,2.0358,0,2.0683,2.0646,2.0622,2.0595,2.0574,2.0552,2.0535,2.0511,2.0492,2.0472,2.0451,2.0427,2.0417,2.0405,2.0395,2.0372,2.0368,2.0372,2.0344,2.0344,2.0353,2.0362,2.0369,2.0369,2.0357,2.0357,2.0357,0,2.0669,2.0645,2.0617,2.0585,2.0575,2.056,2.0533,2.0514,2.0487,2.0474,2.0455,2.0437,2.0417,2.0411,2.0383,2.0386,2.0374,2.0362,2.0361,2.0357,2.035,2.0358,2.0367,2.0368,2.0356,2.0356,2.0356,0,2.0681,2.0642,2.062,2.0607,2.0569,2.0559,2.0543,2.0516,2.0501,2.0478,2.0468,2.0443,2.0429,2.041,2.0386,2.0384,2.0362,2.0353,2.0351,2.0352,2.0346,2.0346,2.0354,2.0339,2.0339,2.0339,2.0339,0,2.0676,2.0659,2.0626,2.0612,2.0594,2.0569,2.0551,2.0533,2.051,2.0494,2.0473,2.0458,2.0428,2.041,2.0391,2.0372,2.0366,2.0356,2.0351,2.0357,2.0358,2.0348,2.0347,2.0339,2.0339,2.0339,2.0339,0,2.0685,2.0661,2.0637,2.0604,2.0596,2.0584,2.0556,2.0543,2.0524,2.0504,2.0498,2.0469,2.0447,2.0422,2.0391,2.0379,2.0361,2.0354,2.0371,2.0368,2.0367,2.0368,2.0368,2.0367,2.0353,2.0353,2.0353,0,2.0683,2.067,2.0637,2.0625,2.061,2.059,2.0576,2.0552,2.0538,2.0509,2.05,2.0477,2.0456,2.0423,2.0399,2.0376,2.0369,2.037,2.0365,2.0373,2.0369,2.037,2.0369,2.0371,2.0372,2.0372,2.0372,0,2.0682,2.0672,2.0652,2.0629,2.0613,2.0593,2.0573,2.0565,2.0537,2.0522,2.05,2.0485,2.0456,2.0434,2.0409,2.0393,2.0378,2.0375,2.0373,2.0379,2.0389,2.0384,2.0375,2.0374,2.0374,2.0374,2.0374,2.0374,2.0685,2.0674,2.065,2.0629,2.0612,2.0595,2.0582,2.0563,2.0545,2.0519,2.0507,2.0485,2.0462,2.0428,2.0413,2.0396,2.0391,2.0389,2.0388,2.0388,2.039,2.0393,2.0392,2.0392,2.0391,2.0391,2.0391,0,2.0683,2.0668,2.065,2.0623,2.0608,2.0598,2.0576,2.0564,2.0545,2.0525,2.0507,2.0484,2.0463,2.044,2.0418,2.041,2.0403,2.0405,2.0405,2.0402,2.0395,2.0399,2.0411,2.0411,2.0411,2.0411,2.0411,2.0411,2.0681,2.0662,2.065,2.0623,2.0608,2.0588,2.0576,2.0561,2.0545,2.052,2.0504,2.0489,2.0468,2.0446,2.0427,2.0421,2.0414,2.0418,2.041,2.0404,2.0402,2.04,2.0404,2.0417,2.0417,2.0418,2.0418,2.0418]}]]